FW4751 Weather Reports


time (UTC)temp
F
wind
direction
speed
knots
gust
knots
rain 1hr
in
rain 24hr
in
rain mn
in
humidity
%
barometer
mb
20260510203004 67 68 2.6 7.0 0.00 0.00 0.00 70 1015.6
20260510202504 67 338 2.6 4.3 0.00 0.00 0.00 70 1015.7
20260510202003 67 45 1.7 5.2 0.00 0.00 0.00 71 1015.7
20260510201504 66 45 1.7 5.2 0.00 0.00 0.00 71 1015.7
20260510201003 66 45 2.6 6.1 0.00 0.00 0.00 71 1015.7
20260510200504 66 45 2.6 4.3 0.00 0.00 0.00 71 1015.8
20260510200023 66 45 2.6 6.1 0.00 0.00 0.00 71 1015.8
20260510195523 66 45 2.6 6.1 0.00 0.00 0.00 71 1015.9
20260510195003 66 68 1.7 6.1 0.00 0.00 0.00 71 1015.9
20260510194503 66 45 1.7 5.2 0.00 0.00 0.00 70 1016.0
20260510194004 66 68 1.7 6.1 0.00 0.00 0.00 71 1016.0
20260510193503 66 338 2.6 7.0 0.00 0.00 0.00 70 1016.1
20260510193005 66 338 1.7 6.1 0.00 0.00 0.00 70 1016.1
20260510192503 65 45 0.9 3.5 0.00 0.00 0.00 72 1016.2
20260510192004 65 45 1.7 5.2 0.00 0.00 0.00 72 1016.1
20260510191504 65 90 1.7 5.2 0.00 0.00 0.00 71 1016.3
20260510191003 65 338 1.7 5.2 0.00 0.00 0.00 72 1016.3
20260510190503 65 338 2.6 5.2 0.00 0.00 0.00 71 1016.4
20260510190004 65 338 1.7 6.1 0.00 0.00 0.00 71 1016.4
20260510185503 65 45 1.7 5.2 0.00 0.00 0.00 72 1016.5
20260510185024 65 45 1.7 6.1 0.00 0.00 0.00 72 1016.5
20260510184503 65 45 1.7 7.0 0.00 0.00 0.00 72 1016.5
20260510184023 65 68 1.7 6.1 0.00 0.00 0.00 71 1016.6
20260510183523 65 68 2.6 6.1 0.00 0.00 0.00 70 1016.6
20260510183003 65 338 1.7 4.3 0.00 0.00 0.00 71 1016.5
20260510182504 64 45 1.7 4.3 0.00 0.00 0.00 72 1016.5
20260510182003 64 68 1.7 5.2 0.00 0.00 0.00 71 1016.6
20260510181503 64 45 1.7 4.3 0.00 0.00 0.00 72 1016.6
20260510181003 64 68 1.7 4.3 0.00 0.00 0.00 72 1016.6
20260510180543 64 45 1.7 5.2 0.00 0.00 0.00 72 1016.5
20260510180004 64 68 1.7 4.3 0.00 0.00 0.00 71 1016.6
20260510175543 65 68 1.7 4.3 0.00 0.00 0.00 72 1016.5
20260510175023 64 45 1.7 4.3 0.00 0.00 0.00 73 1016.3
20260510174503 64 90 1.7 4.3 0.00 0.00 0.00 72 1016.4
20260510174003 64 45 1.7 5.2 0.00 0.00 0.00 73 1016.5
20260510173503 63 45 0.9 4.3 0.00 0.00 0.00 74 1016.5
20260510173004 63 45 1.7 4.3 0.00 0.00 0.00 74 1016.4
20260510172503 63 45 1.7 4.3 0.00 0.00 0.00 74 1016.5
20260510172003 62 45 1.7 5.2 0.00 0.00 0.00 75 1016.6
20260510171503 62 68 1.7 3.5 0.00 0.00 0.00 75 1016.6
20260510171003 62 45 1.7 3.5 0.00 0.00 0.00 75 1016.7
20260510170503 62 68 1.7 4.3 0.00 0.00 0.00 76 1016.6
20260510170003 62 45 1.7 5.2 0.00 0.00 0.00 75 1016.6
20260510165503 62 45 1.7 3.5 0.00 0.00 0.00 74 1016.6
20260510165003 62 45 1.7 4.3 0.00 0.00 0.00 74 1016.7
20260510164503 63 68 0.9 3.5 0.00 0.00 0.00 73 1016.5
20260510164003 63 113 0.9 3.5 0.00 0.00 0.00 74 1016.4
20260510163503 62 45 1.7 4.3 0.00 0.00 0.00 74 1016.4
20260510163003 62 113 1.7 4.3 0.00 0.00 0.00 73 1016.5
20260510162504 62 113 1.7 3.5 0.00 0.00 0.00 75 1016.5
20260510162003 61 338 1.7 2.6 0.00 0.00 0.00 75 1016.4
20260510161503 61 90 0.9 1.7 0.00 0.00 0.00 76 1016.4
20260510161003 61 45 0.9 2.6 0.00 0.00 0.00 75 1016.4
20260510160503 61 90 0.9 2.6 0.00 0.00 0.00 77 1016.3
20260510160003 60 135 0.9 2.6 0.00 0.00 0.00 78 1016.3
20260510155503 59 225 0.9 1.7 0.00 0.00 0.00 80 1016.3
20260510155003 58 45 0.9 1.7 0.00 0.00 0.00 81 1016.3
20260510154503 57 0.0 0.9 0.00 0.00 0.00 81 1016.2
20260510154003 57 0.0 1.7 0.00 0.00 0.00 82 1016.4
20260510153503 57 0 0.9 1.7 0.00 0.00 0.00 83 1016.3
20260510153003 57 338 0.9 2.6 0.00 0.00 0.00 83 1016.3
20260510152523 57 0 0.9 1.7 0.00 0.00 0.00 83 1016.2
20260510152005 57 315 0.9 1.7 0.00 0.00 0.00 83 1016.2
20260510151505 57 293 0.9 1.7 0.00 0.00 0.00 84 1016.2
20260510151005 57 0 0.9 1.7 0.00 0.00 0.00 84 1016.2
20260510150505 56 293 0.9 2.6 0.00 0.00 0.00 85 1016.2
20260510150005 56 315 0.9 1.7 0.00 0.00 0.00 85 1016.3
20260510145505 56 315 0.9 1.7 0.00 0.00 0.00 85 1016.2
20260510145006 56 293 0.9 2.6 0.00 0.00 0.00 85 1016.1
20260510144505 55 293 0.9 2.6 0.00 0.00 0.00 85 1016.1
20260510144005 55 293 0.9 1.7 0.00 0.00 0.00 85 1016.1
20260510143505 55 315 0.9 2.6 0.00 0.00 0.00 85 1016.0
20260510143006 55 315 0.9 1.7 0.00 0.00 0.00 86 1016.1
20260510142505 55 315 0.9 3.5 0.00 0.00 0.00 85 1016.1
20260510142025 55 315 0.9 3.5 0.00 0.00 0.00 86 1016.0
20260510141505 55 315 0.9 2.6 0.00 0.00 0.00 86 1016.0
20260510141005 55 315 0.9 2.6 0.00 0.00 0.00 86 1016.0
20260510140504 55 315 0.9 2.6 0.00 0.00 0.00 86 1015.9
20260510140005 55 315 0.9 2.6 0.00 0.00 0.00 86 1015.8
20260510135546 55 315 0.9 1.7 0.00 0.00 0.00 86 1015.9
20260510135026 55 315 0.9 2.6 0.00 0.00 0.00 86 1015.8
20260510134505 55 315 0.9 2.6 0.00 0.00 0.00 86 1015.7
20260510134005 55 315 0.9 2.6 0.00 0.00 0.00 86 1015.7
20260510133505 55 315 0.9 2.6 0.00 0.00 0.00 86 1015.6
20260510133005 55 315 0.9 2.6 0.00 0.00 0.00 86 1015.7
20260510132505 55 315 0.9 2.6 0.00 0.00 0.00 86 1015.6
20260510132005 55 315 0.9 1.7 0.00 0.00 0.00 86 1015.5
20260510131505 55 315 0.9 2.6 0.00 0.00 0.00 86 1015.4
20260510131005 55 315 0.9 2.6 0.00 0.00 0.00 86 1015.5
20260510130525 55 315 0.9 2.6 0.00 0.00 0.00 86 1015.4
20260510130005 55 315 0.9 2.6 0.00 0.00 0.00 86 1015.4
20260510125504 55 315 0.9 2.6 0.00 0.00 0.00 86 1015.4
20260510125025 55 315 0.9 2.6 0.00 0.00 0.00 86 1015.5
20260510124505 55 315 0.9 1.7 0.00 0.00 0.00 86 1015.5
20260510124004 55 315 0.9 2.6 0.00 0.00 0.00 86 1015.5
20260510123505 55 315 0.9 2.6 0.00 0.00 0.00 86 1015.5
20260510123004 55 338 0.9 2.6 0.00 0.00 0.00 86 1015.6
20260510122504 55 315 1.7 3.5 0.00 0.00 0.00 86 1015.5
20260510122004 55 338 0.9 2.6 0.00 0.00 0.00 86 1015.4
20260510121504 55 338 0.9 1.7 0.00 0.00 0.00 86 1015.5
20260510121004 55 315 0.9 2.6 0.00 0.00 0.00 86 1015.5
20260510120504 55 315 0.9 1.7 0.00 0.00 0.00 86 1015.6
20260510120004 55 338 0.9 2.6 0.00 0.00 0.00 86 1015.5
20260510115504 55 315 0.9 2.6 0.00 0.00 0.00 86 1015.5
20260510115004 55 338 0.9 3.5 0.00 0.00 0.00 86 1015.6
20260510114504 55 338 0.9 2.6 0.00 0.00 0.00 86 1015.5
20260510114004 55 338 0.9 2.6 0.00 0.00 0.00 86 1015.5
20260510113505 55 338 0.9 2.6 0.00 0.00 0.00 86 1015.5
20260510113005 55 315 1.7 4.3 0.00 0.00 0.00 86 1015.6
20260510112524 55 315 0.9 3.5 0.00 0.00 0.00 86 1015.5
20260510112004 55 338 0.9 3.5 0.00 0.00 0.00 86 1015.5
20260510111504 55 315 0.9 3.5 0.00 0.00 0.00 86 1015.5
20260510111004 55 315 0.9 2.6 0.00 0.00 0.00 86 1015.6
20260510110504 55 338 0.9 2.6 0.00 0.00 0.00 87 1015.6
20260510110004 55 315 0.9 3.5 0.00 0.00 0.00 87 1015.5
20260510105504 55 315 0.9 2.6 0.00 0.00 0.00 87 1015.5
20260510105004 55 315 0.9 2.6 0.00 0.00 0.00 87 1015.5
20260510104504 55 315 0.9 2.6 0.00 0.00 0.00 87 1015.4
20260510104024 55 315 0.9 2.6 0.00 0.00 0.00 87 1015.5
20260510103504 55 338 0.9 2.6 0.00 0.00 0.00 87 1015.5
20260510103004 55 315 0.9 3.5 0.00 0.00 0.00 87 1015.5
20260510102505 55 315 0.9 1.7 0.00 0.00 0.00 88 1015.6
20260510102004 55 315 0.9 2.6 0.00 0.00 0.00 88 1015.6
20260510101525 55 315 0.9 2.6 0.00 0.00 0.00 88 1015.6
20260510101004 55 338 0.9 3.5 0.00 0.00 0.00 88 1015.6
20260510100504 55 315 0.9 2.6 0.00 0.00 0.00 89 1015.6
20260510100004 55 315 0.9 2.6 0.00 0.00 0.00 89 1015.5
20260510095504 55 338 0.9 3.5 0.00 0.00 0.00 89 1015.5
20260510095004 55 315 0.9 2.6 0.00 0.00 0.00 89 1015.5
20260510094504 54 315 0.9 2.6 0.00 0.00 0.00 89 1015.5
20260510094004 54 45 0.9 2.6 0.00 0.00 0.00 90 1015.5
20260510093504 54 0 0.9 2.6 0.00 0.00 0.00 90 1015.5
20260510093004 54 315 0.9 1.7 0.00 0.00 0.00 90 1015.6
20260510092504 54 293 0.9 1.7 0.00 0.00 0.00 90 1015.5
20260510092004 54 0.0 1.7 0.00 0.00 0.00 90 1015.6
20260510091504 54 315 0.9 1.7 0.00 0.00 0.00 90 1015.6
20260510091044 54 315 0.9 1.7 0.00 0.00 0.00 90 1015.5
20260510090504 53 0 0.9 1.7 0.00 0.00 0.00 90 1015.5
20260510090004 53 338 0.9 1.7 0.00 0.00 0.00 89 1015.5
20260510085504 53 338 0.9 1.7 0.00 0.00 0.00 89 1015.5
20260510085004 53 0.0 1.7 0.00 0.00 0.00 89 1015.6
20260510084504 53 338 0.9 1.7 0.00 0.00 0.00 88 1015.5
20260510084004 52 0.0 1.7 0.00 0.00 0.00 88 1015.5
20260510083504 52 0.0 0.9 0.00 0.00 0.00 88 1015.6
20260510083004 52 315 0.9 1.7 0.00 0.00 0.00 88 1015.5
20260510082504 52 315 0.9 1.7 0.00 0.00 0.00 87 1015.5
20260510082004 52 0.0 0.9 0.00 0.00 0.00 87 1015.4
20260510081503 52 0.0 0.9 0.00 0.00 0.00 86 1015.5
20260510081024 52 0.0 1.7 0.00 0.00 0.00 86 1015.4
20260510080524 53 0.0 0.9 0.00 0.00 0.00 86 1015.5
20260510080004 53 0.0 0.9 0.00 0.00 0.00 86 1015.5
20260510075624 53 0.0 0.9 0.00 0.00 0.00 86 1015.5
20260510075024 53 0.0 0.9 0.00 0.00 0.00 86 1015.6
20260510074503 53 0.0 0.9 0.00 0.00 0.00 85 1015.6
20260510074004 53 0.0 0.9 0.00 0.00 0.00 85 1015.5
20260510073504 53 0.0 0.9 0.00 0.00 0.00 85 1015.6
20260510073004 54 0.0 0.9 0.00 0.00 0.00 85 1015.5
20260510072504 54 0.0 0.9 0.00 0.00 0.00 85 1015.6
20260510072004 54 0.0 0.9 0.00 0.00 0.00 84 1015.5
20260510071504 54 0.0 0.9 0.00 0.00 0.00 84 1015.6
20260510071005 54 0.0 0.9 0.00 0.00 0.00 84 1015.6
20260510070544 54 0.0 0.9 0.00 0.00 0.00 84 1015.6
20260510070005 54 0.0 0.9 0.00 0.00 0.00 84 1015.6
20260510065504 55 0.0 0.9 0.00 0.00 0.00 84 1015.6
20260510065004 55 0.0 0.9 0.00 0.00 0.00 84 1015.5
20260510064504 55 0.0 0.9 0.00 0.00 0.00 84 1015.5
20260510064004 55 0.0 0.9 0.00 0.00 0.00 84 1015.6
20260510063504 55 0.0 0.9 0.00 0.00 0.00 84 1015.5
20260510063004 55 0.0 0.9 0.00 0.00 0.00 84 1015.6
20260510062504 55 0 0.9 0.9 0.00 0.00 0.00 84 1015.5
20260510062004 56 0.0 0.9 0.00 0.00 0.00 84 1015.6
20260510061504 56 0.0 1.7 0.00 0.00 0.00 83 1015.5
20260510061003 56 0.0 1.7 0.00 0.00 0.00 83 1015.5
20260510060504 56 0.0 1.7 0.00 0.00 0.00 83 1015.6
20260510060004 56 0.0 0.9 0.00 0.00 0.00 83 1015.5
20260510055544 56 0.0 0.9 0.00 0.00 0.00 83 1015.5
20260510055004 56 0.0 1.7 0.00 0.00 0.00 83 1015.5
20260510054504 56 0.0 1.7 0.00 0.00 0.00 83 1015.6
20260510054003 56 45 0.9 1.7 0.00 0.00 0.00 83 1015.6
20260510053503 57 45 0.9 2.6 0.00 0.00 0.00 82 1015.6
20260510053004 57 45 0.9 2.6 0.00 0.00 0.00 82 1015.6
20260510052503 57 0 0.9 1.7 0.00 0.00 0.00 82 1015.6
20260510052105 57 45 0.9 2.6 0.00 0.00 0.00 82 1015.6
20260510051504 57 45 0.9 2.6 0.00 0.00 0.00 81 1015.5
20260510051004 57 45 0.9 2.6 0.00 0.00 0.00 81 1015.5
20260510050503 57 45 0.9 3.5 0.00 0.00 0.00 81 1015.5
20260510050004 57 23 0.9 2.6 0.00 0.00 0.00 80 1015.5
20260510045504 57 45 0.9 2.6 0.00 0.00 0.00 80 1015.5
20260510045004 58 45 0.9 2.6 0.00 0.00 0.00 80 1015.4
20260510044503 58 45 0.9 3.5 0.00 0.00 0.00 80 1015.4
20260510044003 58 45 1.7 4.3 0.00 0.00 0.00 79 1015.3
20260510043503 58 45 1.7 3.5 0.00 0.00 0.00 79 1015.3
20260510043003 58 45 1.7 4.3 0.00 0.00 0.00 79 1015.2
20260510042523 58 45 1.7 4.3 0.00 0.00 0.00 78 1015.3
20260510042003 58 45 0.9 2.6 0.00 0.00 0.00 78 1015.2
20260510041504 58 45 0.9 2.6 0.00 0.00 0.00 78 1015.2
20260510041003 59 45 0.9 2.6 0.00 0.00 0.00 78 1015.1
20260510040504 59 45 0.9 2.6 0.00 0.00 0.00 77 1015.0
20260510040003 59 45 0.9 2.6 0.00 0.00 0.00 77 1015.0
20260510035503 59 45 0.9 2.6 0.00 0.00 0.00 76 1015.1
20260510035024 59 45 0.9 3.5 0.00 0.00 0.00 76 1015.0
20260510034523 59 45 0.9 3.5 0.00 0.00 0.00 76 1015.0
20260510034003 60 68 0.9 2.6 0.00 0.00 0.00 75 1014.9
20260510033503 60 68 1.7 4.3 0.00 0.00 0.00 75 1014.9
20260510033024 60 68 0.9 4.3 0.00 0.00 0.00 74 1014.9
20260510032503 60 68 0.9 2.6 0.00 0.00 0.00 74 1014.8
20260510032003 60 45 1.7 3.5 0.00 0.00 0.00 73 1014.6
20260510031503 61 45 1.7 4.3 0.00 0.00 0.00 73 1014.5
20260510031003 61 45 0.9 3.5 0.00 0.00 0.00 72 1014.5
20260510030503 61 45 0.9 2.6 0.00 0.00 0.00 72 1014.5
20260510030003 61 45 0.9 3.5 0.00 0.00 0.00 72 1014.4
20260510025503 62 45 0.9 3.5 0.00 0.00 0.00 71 1014.3
20260510025003 62 45 0.9 2.6 0.00 0.00 0.00 71 1014.2
20260510024503 62 45 1.7 3.5 0.00 0.00 0.00 71 1014.2
20260510024003 62 45 1.7 2.6 0.00 0.00 0.00 70 1014.3
20260510023503 63 45 1.7 4.3 0.00 0.00 0.00 70 1014.2
20260510023003 63 45 1.7 4.3 0.00 0.00 0.00 69 1014.1
20260510022503 63 68 0.9 5.2 0.00 0.00 0.00 69 1014.1
20260510022003 63 338 1.7 5.2 0.00 0.00 0.00 68 1014.0
20260510021503 63 45 1.7 5.2 0.00 0.00 0.00 68 1014.2
20260510021023 64 338 2.6 8.7 0.00 0.00 0.00 67 1014.1
20260510020503 64 45 2.6 7.8 0.00 0.00 0.00 67 1014.0
20260510020003 65 45 2.6 7.0 0.00 0.00 0.00 66 1014.2
20260510015503 65 45 2.6 6.1 0.00 0.00 0.00 66 1014.0
20260510015003 65 338 2.6 7.0 0.00 0.00 0.00 65 1014.1
20260510014644 66 45 1.7 4.3 0.00 0.00 0.00 66 1014.1
20260510014003 66 45 2.6 7.0 0.00 0.00 0.00 66 1014.0
20260510013503 66 45 2.6 7.8 0.00 0.00 0.00 65 1014.1
20260510013003 66 45 2.6 7.0 0.00 0.00 0.00 65 1013.9
20260510012503 66 338 3.5 7.0 0.00 0.00 0.00 64 1014.1
20260510012003 67 0 3.5 7.8 0.00 0.00 0.00 63 1014.0
20260510011503 67 45 3.5 7.0 0.00 0.00 0.00 63 1014.0
20260510011003 68 0 2.6 7.0 0.00 0.00 0.00 63 1014.0
20260510010503 68 45 2.6 7.8 0.00 0.00 0.00 62 1013.9
20260510010004 68 338 3.5 7.0 0.00 0.00 0.00 62 1014.0
20260510005504 69 338 2.6 6.1 0.00 0.00 0.00 61 1013.9
20260510005005 69 45 1.7 7.8 0.00 0.00 0.00 61 1013.9
20260510004505 69 338 2.6 7.8 0.00 0.00 0.00 61 1013.9
20260510004025 69 45 2.6 6.1 0.00 0.00 0.00 61 1013.9
20260510003505 69 45 2.6 6.1 0.00 0.00 0.00 61 1013.9
20260510003005 69 0 3.5 7.0 0.00 0.00 0.00 60 1013.9
20260510002504 69 68 2.6 5.2 0.00 0.00 0.00 60 1013.9
20260510002010 69 45 3.5 7.0 0.00 0.00 0.00 61 1013.8
20260510001504 69 45 2.6 7.0 0.00 0.00 0.00 61 1013.9
20260510001005 69 45 2.6 7.0 0.00 0.00 0.00 61 1013.9
20260510000525 70 45 3.5 7.8 0.00 0.00 0.00 61 1013.9
20260510000005 70 338 2.6 7.8 0.00 0.00 0.00 60 1014.0
20260509235505 70 338 2.6 6.1 0.00 0.00 0.00 61 1014.0
20260509235005 70 338 3.5 7.8 0.00 0.00 0.00 60 1013.9
20260509234505 70 338 2.6 7.0 0.00 0.00 0.00 61 1014.1
20260509234024 70 45 2.6 6.1 0.00 0.00 0.00 61 1014.0
20260509233505 70 0 4.3 9.6 0.00 0.00 0.00 60 1013.9
20260509233024 71 338 3.5 8.7 0.00 0.00 0.00 59 1013.9
20260509232505 70 45 3.5 7.8 0.00 0.00 0.00 60 1013.8
20260509232046 71 45 4.3 8.7 0.00 0.00 0.00 58 1013.9
20260509231505 72 338 3.5 9.6 0.00 0.00 0.00 57 1013.9
20260509231005 72 338 2.6 9.6 0.00 0.00 0.00 57 1013.9
20260509230504 72 338 2.6 8.7 0.00 0.00 0.00 57 1013.9
20260509230004 71 338 2.6 7.8 0.00 0.00 0.00 59 1014.0
20260509225504 71 338 3.5 9.6 0.00 0.00 0.00 58 1014.2
20260509225004 72 0 4.3 7.8 0.00 0.00 0.00 57 1014.2
20260509224505 72 338 3.5 11.3 0.00 0.00 0.00 56 1014.2
20260509224105 73 45 2.6 7.8 0.00 0.00 0.00 56 1014.3
20260509223504 73 338 3.5 8.7 0.00 0.00 0.00 55 1014.6
20260509223005 74 45 3.5 8.7 0.00 0.00 0.00 55 1014.4
20260509222524 74 45 2.6 7.8 0.00 0.00 0.00 54 1014.5
20260509222024 74 45 1.7 5.2 0.00 0.00 0.00 55 1014.5
20260509221524 74 338 2.6 7.8 0.00 0.00 0.00 55 1014.6
20260509221004 73 315 2.6 6.1 0.00 0.00 0.00 56 1014.6
20260509220504 73 338 2.6 7.8 0.00 0.00 0.00 57 1014.6
20260509220005 73 315 2.6 7.8 0.00 0.00 0.00 57 1014.7
20260509215526 72 338 1.7 8.7 0.00 0.00 0.00 59 1014.7
20260509215004 72 45 4.3 11.3 0.00 0.00 0.00 60 1014.7
20260509214504 72 45 3.5 7.8 0.00 0.00 0.00 62 1014.7
20260509214005 72 45 3.5 7.8 0.00 0.00 0.00 63 1014.7
20260509213505 71 338 4.3 8.7 0.00 0.00 0.00 62 1014.8
20260509213005 71 45 4.3 9.6 0.00 0.00 0.00 62 1014.8
20260509212504 71 45 3.5 8.7 0.00 0.00 0.00 63 1014.8
20260509212024 71 45 3.5 9.6 0.00 0.00 0.00 64 1014.9
20260509211524 71 45 4.3 8.7 0.00 0.00 0.00 65 1015.0
20260509211004 71 45 3.5 9.6 0.00 0.00 0.00 65 1015.1
20260509210525 71 45 3.5 7.0 0.00 0.00 0.00 65 1015.2
20260509210004 71 45 3.5 8.7 0.00 0.00 0.00 66 1015.2
20260509205504 70 45 3.5 7.8 0.00 0.00 0.00 66 1015.1
20260509205024 70 45 2.6 7.0 0.00 0.00 0.00 66 1015.3
20260509204504 69 45 3.5 7.0 0.00 0.00 0.00 67 1015.3
20260509204004 69 45 3.5 7.8 0.00 0.00 0.00 67 1015.3
20260509203524 69 45 3.5 8.7 0.00 0.00 0.00 67 1015.4